GSAT-17 (42815 NORAD) Tracking and Keplerian Element Data

This shows tracking and keplerian element data for the satellite.

Feedback or suggestion? Click here.




ElementValue
Catalog42815
NameGSAT-17
Epoch Orbit2779
Epoch Day34.70216628
Epoch Year2025
RAAN108.0948
Inclination0.0206
Eccentricity0.0005931
Argument of Perigee167.2253
Mean Anonmoly205.062
Mean Motion1.00268994
Decay Rate-2.53E-06
L11 42815U 17040B 25034.70216628 -.00000253 00000+0 00000+0 0 9997
L22 42815 0.0206 108.0948 0005931 167.2253 205.0620 1.00268994 27793



Live tracking and technical data element details for GSAT-17 (NORAD 42815). GSAT-17 can be tracked NOW for your location showing map with azimuth and elevation plus other details from your city location.







IsCatalogInMostPopularTable: catalog: 42815, numindb: 605
Update: records affected: 1



GetName: 42815 GSAT-17

Hit Count: updated at: Thu, 15 May 2025 18:22:10 GMT